Preview of NWS' New Version of Forecast
This preview is not operational and should not be used for support decisions.

Terminal Aerodrome Forecast (TAF)

Issued by National Weather Service (NWS)

                            
000
FTUS45 KBOI 162320
TAFMYL
TAF
KMYL 162320Z 1700/1724 VRB05KT P6SM SCT100=